Location: Breitenfeld
(46.8500°N, 15.6333°E)
Time: 00:11:12
(UTC+00:00)

BlueWalker 3 - Visible Passes

Search period start: 07 December 2022 00:00
Search period end: 17 December 2022 00:00
Orbit: 501 x 518 km, 53.2° (Epoch: 06 December)

Date Brightness Start Highest point End Pass type
(mag) Time Alt. Az. Time Alt. Az. Time Alt. Az.
07 Dec 2.6 16:07:43 10° NW 16:11:25 38° NNE 16:14:16 15° ENE visible
07 Dec 3.1 17:46:25 10° WNW 17:49:06 41° WNW 17:49:06 41° WNW visible
08 Dec 2.6 15:49:19 10° NW 15:53:02 39° NNE 15:56:43 10° E visible
08 Dec 2.2 17:28:00 10° WNW 17:31:50 65° SW 17:31:50 65° SW visible
09 Dec 2.3 17:09:36 10° WNW 17:13:29 62° SW 17:14:45 38° SSE visible
10 Dec 2.5 16:51:11 10° WNW 16:55:03 58° SW 16:57:54 17° SE visible
10 Dec 5.2 18:32:32 10° WSW 18:32:47 10° SW 18:32:47 10° SW visible
11 Dec 2.6 16:32:46 10° WNW 16:36:37 55° SW 16:40:24 10° SE visible
12 Dec 2.8 16:14:22 10° WNW 16:18:11 52° SW 16:21:57 10° SE visible
13 Dec 3.0 15:55:57 10° WNW 15:59:44 49° SW 16:03:29 10° SE visible
14 Dec 3.2 15:37:31 10° WNW 15:41:17 46° SW 15:45:01 10° SE visible
